Date,TemperatureHighF,TemperatureAvgF,TemperatureLowF,DewpointHighF,DewpointAvgF,DewpointLowF,HumidityHigh,HumidityAvg,HumidityLow,PressureMaxIn,PressureMinIn,WindSpeedMaxMPH,WindSpeedAvgMPH,GustSpeedMaxMPH,PrecipitationSumIn
2013-1-13,48,9,45,48,-71,-100,100,20,100,30.08,29.93,5,1,0,0.00
2013-1-14,50,6,48,51,-83,-100,100,11,100,30.18,29.86,12,2,0,0.00
2013-1-15,-200,0,200,-100,-100,-100,0,0,100,30.24,30.12,5,2,0,0.00
2013-1-16,-200,0,200,-100,-100,-100,0,0,100,30.14,29.68,7,3,0,0.00
2013-1-17,42,14,39,33,-55,-100,77,24,64,29.99,29.81,11,3,0,0.00
2013-1-18,30,10,26,9,-61,-100,49,14,33,30.41,29.92,12,4,0,0.00
2013-1-19,46,15,39,33,-56,-100,69,20,53,30.34,29.87,17,7,0,0.00
2013-1-20,55,19,43,34,-50,-100,70,19,41,29.88,29.57,15,7,0,0.00
2013-1-21,31,6,27,18,-79,-100,60,9,42,30.02,29.71,7,2,0,0.00
2013-1-22,25,8,21,9,-60,-100,58,18,41,30.04,29.69,17,6,0,0.05
2013-1-23,18,4,14,3,-75,-100,59,12,43,30.11,30.03,12,4,0,0.00
2013-1-24,23,7,13,4,-62,-100,65,17,37,30.22,30.03,17,5,0,0.00
2013-1-25,23,10,16,8,-49,-100,58,25,48,30.28,30.08,12,4,0,0.00
2013-1-26,26,12,17,12,-42,-100,77,30,43,30.22,29.95,15,3,0,0.05
2013-1-27,33,11,21,12,-58,-100,66,18,31,30.40,30.22,11,3,0,0.01
2013-1-28,33,9,28,29,-64,-100,89,20,47,30.39,29.91,5,1,0,0.01
2013-1-29,42,12,34,35,-59,-100,95,26,74,30.10,29.90,6,2,0,0.02
2013-1-30,54,12,51,52,-65,-100,98,22,91,30.04,29.41,19,6,0,0.00
2013-1-31,48,16,44,39,-55,-100,71,19,51,29.40,29.01,35,13,0,0.00
2013-2-9,29,19,26,26,-19,-100,89,50,68,30.03,29.80,17,6,0,0.01
2013-2-17,29,4,28,8,-85,-100,42,5,36,29.73,29.53,21,11,0,0.00
2013-2-18,32,11,20,16,-57,-100,55,19,44,30.13,29.74,22,8,0,0.00
2013-2-19,47,16,35,41,-51,-100,88,26,65,30.13,29.55,13,4,0,0.00
2013-2-20,35,13,31,23,-52,-100,65,22,48,29.81,29.55,17,7,0,0.00
2013-2-21,37,13,26,18,-54,-100,63,21,46,30.13,29.79,18,6,0,0.00
2013-2-22,39,15,28,26,-49,-100,72,25,56,30.30,30.14,13,3,0,0.00
2013-2-23,41,13,37,38,-56,-100,92,28,80,30.21,29.69,16,6,0,0.02
2013-2-24,40,11,38,40,-61,-100,97,27,92,29.82,29.60,14,-208,0,0.03
2013-2-25,44,16,34,31,-52,-100,76,23,52,30.15,29.82,5,1,0,0.00
2013-2-26,42,15,36,35,-52,-100,89,27,62,30.23,29.93,15,5,0,0.00
2013-2-27,-200,0,200,-100,-100,-100,0,0,100,29.92,29.44,24,-174,0,0.00
2013-2-28,45,14,40,42,-53,-100,98,30,85,29.54,29.45,6,-350,0,0.00
2013-3-1,46,11,41,37,-66,-100,87,18,58,29.64,29.46,8,1,0,0.00
2013-3-2,43,14,35,29,-54,-100,72,23,55,29.65,29.57,12,2,0,0.00
2013-3-3,38,14,32,25,-52,-100,72,24,54,29.60,29.53,9,3,0,0.00
2013-3-4,43,16,30,26,-48,-100,72,24,50,29.72,29.58,17,5,0,0.00
2013-3-5,47,18,32,30,-46,-100,73,23,46,29.95,29.72,10,2,0,0.00
2013-3-6,42,14,38,36,-54,-100,88,28,70,29.94,29.78,30,12,0,0.00
2013-3-7,41,14,33,31,-52,-100,93,26,63,29.91,29.77,24,10,0,0.00
2013-3-8,38,34,32,34,32,28,95,90,68,30.03,29.85,12,-91,0,0.40
2013-3-9,54,41,33,32,26,20,85,58,28,30.26,30.03,9,3,0,0.49
2013-3-10,46,37,32,35,31,28,91,80,62,30.33,30.25,12,3,0,0.00
2013-3-11,52,43,32,44,39,30,95,86,72,30.27,30.07,9,2,0,0.00
2013-3-12,56,52,45,52,48,44,97,89,76,30.07,29.66,23,8,0,0.65
2013-3-13,49,43,37,44,32,27,96,69,45,29.77,29.70,11,-93,0,0.00
2013-3-14,40,35,32,31,20,13,80,55,40,29.82,29.73,18,6,0,0.00
2013-3-15,43,36,29,31,20,11,74,53,38,29.87,29.65,16,5,0,0.00
2013-3-16,41,36,33,30,23,14,84,62,36,29.82,29.67,11,2,0,0.00
2013-3-17,40,34,30,29,16,9,82,49,30,30.23,29.82,14,3,0,0.00
2013-3-18,35,32,26,31,16,6,89,53,41,30.36,30.02,14,6,0,0.03
2013-3-19,43,37,33,42,36,31,97,93,89,30.02,29.52,21,9,0,0.50
2013-3-20,43,37,33,33,24,20,90,62,42,29.84,29.73,17,5,0,0.00
2013-3-21,41,35,31,28,25,21,84,68,53,29.82,29.61,10,2,0,0.00
2013-3-22,42,35,30,26,20,14,63,55,46,29.80,29.65,13,5,0,0.00
2013-3-23,46,39,34,27,24,20,68,56,39,29.86,29.71,17,6,0,0.00
2013-3-24,47,40,34,31,24,20,77,56,40,29.88,29.70,12,3,0,0.00
2013-3-25,42,38,35,34,31,27,90,76,60,29.73,29.42,16,7,0,0.08
2013-3-26,51,43,35,33,29,25,87,60,41,29.81,29.50,9,1,0,0.02
2013-3-27,52,42,32,30,28,25,82,59,36,29.89,29.79,8,2,0,0.00
2013-3-28,49,42,36,36,33,29,80,69,57,30.04,29.88,5,1,0,0.00
2013-3-29,56,46,36,35,32,28,84,61,37,30.08,30.00,6,2,0,0.00
2013-3-30,56,46,37,35,30,22,82,57,27,30.12,30.04,7,2,0,0.00
2013-3-31,54,46,36,46,37,32,94,73,48,30.13,29.62,12,4,0,0.20
2013-4-1,56,47,38,47,41,21,97,82,50,29.84,29.59,12,5,0,0.07
2013-4-2,43,38,33,22,19,15,63,47,34,30.02,29.85,13,6,0,0.00
2013-4-3,46,39,33,24,18,15,55,44,33,30.22,30.01,18,6,0,0.00
2013-4-4,48,39,33,34,24,16,77,55,36,30.36,30.11,18,4,0,0.00
2013-4-5,58,47,41,40,32,23,88,60,31,30.10,29.66,11,3,0,0.00
2013-4-6,49,41,36,30,20,9,74,45,22,30.32,29.91,17,3,0,0.00
2013-4-7,53,44,35,44,35,28,91,74,46,30.31,30.03,17,4,0,0.00
2013-4-8,66,54,46,46,44,42,92,71,42,30.07,29.97,10,3,0,0.00
2013-4-9,74,60,49,51,45,40,93,61,34,30.05,29.89,15,3,0,0.00
2013-4-10,70,54,46,52,46,43,93,76,53,30.02,29.82,14,4,0,0.15
2013-4-11,60,50,45,52,45,37,97,83,67,30.08,29.79,11,4,0,0.04
2013-4-12,45,42,40,40,38,31,96,86,62,30.08,29.70,23,12,0,0.81
2013-4-13,56,46,39,41,38,34,95,75,46,29.95,29.69,11,-267,0,0.05
2013-4-14,57,51,44,42,35,26,82,56,40,30.21,29.94,12,4,0,0.00
2013-4-15,55,47,40,39,32,27,88,58,39,30.39,30.21,7,2,0,0.00
2013-4-16,61,52,42,50,45,39,92,79,62,30.39,30.15,15,5,0,0.00
2013-4-17,67,57,48,51,43,34,93,65,30,30.31,30.11,14,3,0,0.07
2013-4-18,61,52,43,50,42,32,91,70,35,30.39,30.14,12,5,0,0.00
2013-4-19,67,59,54,61,57,50,99,94,79,30.14,29.72,23,7,0,0.02
2013-4-20,60,53,45,60,43,32,99,73,43,30.22,29.66,22,5,0,0.56
2013-4-21,54,44,37,31,25,21,71,49,29,30.65,30.23,10,3,0,0.00
2013-4-22,52,45,38,39,34,31,81,68,48,30.67,30.51,27,9,0,0.00
2013-4-23,48,44,41,43,39,34,92,84,72,30.51,30.02,19,9,0,0.01
2013-4-24,63,50,44,50,44,40,96,80,54,30.02,29.90,16,5,0,0.00
2013-4-25,62,54,47,51,41,30,96,64,31,30.27,29.88,15,3,0,0.03
2013-4-26,66,53,42,45,39,33,88,61,33,30.39,30.27,9,2,0,0.00
2013-4-27,64,52,43,47,42,37,94,73,37,30.40,30.31,10,1,0,0.00
2013-4-28,65,53,40,48,39,25,96,65,26,30.34,30.24,10,2,0,0.00
2013-4-29,61,55,51,46,43,38,82,65,44,30.27,30.22,10,2,0,0.00
2013-4-30,65,55,45,47,37,26,87,56,25,30.35,30.23,12,3,0,0.00
2013-5-1,66,53,42,47,42,34,85,66,46,30.48,30.34,13,4,0,0.00
2013-5-2,68,56,43,50,45,41,96,70,42,30.46,30.34,11,2,0,0.00
2013-5-3,61,54,47,46,42,37,86,66,49,30.46,30.36,16,5,0,0.00
2013-5-4,62,52,44,46,42,39,92,72,48,30.37,30.26,12,4,0,0.00
2013-5-5,60,50,42,43,41,38,89,73,52,30.30,30.23,14,4,0,0.00
2013-5-6,67,54,44,50,45,40,89,73,52,30.28,30.17,10,4,0,0.00
2013-5-7,72,58,48,58,53,46,97,82,60,30.19,30.12,9,3,0,0.00
2013-5-8,67,59,54,64,57,52,96,92,81,30.15,30.03,12,3,0,0.21
2013-5-9,61,57,54,61,56,52,99,96,93,30.05,29.88,9,3,0,0.25
2013-5-10,77,62,52,60,56,51,98,81,46,30.00,29.93,10,2,0,0.00
2013-5-11,67,61,58,62,58,55,97,92,81,29.95,29.72,19,4,0,0.43
2013-5-12,70,61,54,59,51,34,98,72,39,29.88,29.64,12,3,0,0.01
2013-5-13,58,52,48,38,34,30,61,51,37,30.06,29.88,12,4,0,0.00
2013-5-14,59,52,44,42,34,29,75,54,34,30.08,30.02,10,3,0,0.00
2013-5-15,63,54,43,54,47,39,94,78,46,30.09,29.71,13,3,0,0.02
2013-5-16,74,62,51,60,53,49,96,74,43,29.82,29.70,11,2,0,0.00
2013-5-17,70,61,54,50,46,43,79,59,39,30.21,29.82,6,1,0,0.00
2013-5-18,70,59,52,53,50,48,89,73,49,30.33,30.22,12,2,0,0.00
2013-5-19,64,58,55,57,53,47,97,84,70,30.37,30.20,9,2,0,0.14
2013-5-20,76,65,58,67,62,58,99,90,69,30.20,29.98,9,2,0,0.02
2013-5-21,79,64,60,69,54,-100,97,80,67,29.99,29.87,10,3,0,0.01
2013-5-22,75,47,54,64,15,-100,96,61,64,29.97,29.90,13,3,0,0.00
2013-5-23,71,65,63,66,64,62,98,94,82,29.96,29.84,16,6,0,0.64
2013-5-24,70,62,49,66,59,47,99,91,77,29.85,29.69,12,2,0,0.31
2013-5-25,50,48,47,48,45,40,96,88,76,29.88,29.80,11,3,0,0.31
2013-5-26,64,54,48,45,42,40,77,64,48,30.17,29.85,15,4,0,0.00
2013-5-27,71,59,47,50,44,36,83,60,28,30.20,30.13,13,4,0,0.00
2013-5-28,71,59,50,58,52,46,96,80,47,30.23,30.16,10,1,0,0.15
2013-5-29,72,63,58,64,60,57,97,90,75,30.17,30.03,10,2,0,0.13
2013-5-30,88,73,62,71,64,59,94,76,53,30.12,30.07,9,2,0,0.00
2013-5-31,89,74,64,72,65,61,94,74,49,30.13,30.02,10,2,0,0.00
2013-6-1,82,72,66,69,65,63,92,80,63,30.04,29.96,13,4,0,0.00
2013-6-2,75,69,65,67,64,63,95,84,72,29.96,29.83,16,6,0,0.00
2013-6-3,70,66,64,69,65,62,98,95,89,29.88,29.82,11,3,0,0.26
2013-6-4,72,63,56,64,48,41,95,60,42,30.09,29.86,9,2,0,0.00
2013-6-5,74,64,56,53,49,43,86,60,34,30.22,30.09,10,2,0,0.00
2013-6-6,73,64,55,63,56,52,96,79,50,30.18,30.06,9,2,0,0.00
2013-6-7,68,59,58,68,58,55,100,94,83,30.06,29.66,18,6,0,3.28
2013-6-8,76,67,56,69,63,56,100,88,67,30.04,29.52,17,4,0,0.83
2013-6-9,79,69,60,61,60,57,94,74,50,30.20,30.04,6,1,0,0.00
2013-6-10,76,65,60,67,62,59,98,89,71,30.19,29.92,14,3,0,2.30
2013-6-11,79,69,61,72,66,60,100,91,70,29.91,29.60,13,3,0,0.53
2013-6-12,74,68,64,59,56,53,79,67,51,29.85,29.65,14,3,0,0.00
2013-6-13,63,60,56,59,56,51,96,88,77,29.83,29.50,19,6,0,0.46
2013-6-14,70,60,54,59,55,51,97,82,58,29.83,29.51,19,4,0,0.49
2013-6-15,78,68,59,61,57,49,92,71,37,29.98,29.84,7,2,0,0.00
2013-6-16,76,68,59,65,61,56,94,80,52,29.98,29.78,10,2,0,0.00
2013-6-17,82,72,64,69,65,61,95,79,59,29.95,29.84,9,2,0,0.25
2013-6-18,80,68,61,70,64,60,97,87,71,29.92,29.85,11,2,0,0.40
2013-6-19,77,67,58,61,57,48,95,72,36,30.17,29.88,7,2,0,0.03
2013-6-20,78,67,58,59,56,52,92,71,44,30.29,30.17,8,2,0,0.00
2013-6-21,78,69,62,64,57,54,82,67,52,30.31,30.26,12,3,0,0.00
2013-6-22,80,70,63,65,61,53,93,75,45,30.28,30.18,13,2,0,0.00
2013-6-23,81,73,65,71,67,62,94,81,63,30.21,30.09,11,3,0,0.00
2013-6-24,91,78,71,74,71,64,96,79,54,30.09,29.95,6,2,0,0.00
2013-6-25,89,77,68,74,69,64,92,76,58,29.99,29.79,10,2,0,0.00
2013-6-26,84,78,73,71,70,68,89,75,61,29.84,29.77,7,2,0,0.00
2013-6-27,79,74,70,72,70,67,95,87,73,29.84,29.68,9,2,0,0.22
2013-6-28,80,75,71,74,72,70,97,90,76,29.67,29.54,18,5,0,0.00
2013-6-29,80,74,72,72,71,69,96,88,71,29.74,29.51,13,4,0,0.03
2013-6-30,79,74,72,73,71,69,96,90,72,29.96,29.74,11,2,0,0.17
2013-7-1,79,74,72,76,73,71,98,95,85,30.11,29.95,9,2,0,0.04
2013-7-2,80,75,74,74,73,71,95,91,79,30.21,30.11,11,3,0,0.00
2013-7-3,82,77,72,75,72,70,95,87,73,30.27,30.20,11,4,0,0.00
2013-7-4,87,79,74,78,74,72,96,85,70,30.26,30.18,13,3,0,0.00
2013-7-5,88,80,75,76,73,71,90,80,66,30.21,30.11,11,3,0,0.00
2013-7-6,92,82,76,77,74,72,88,76,54,30.13,30.02,11,3,0,0.00
2013-7-7,91,82,76,77,74,72,91,78,57,30.05,29.93,10,2,0,0.00
2013-7-8,90,80,75,74,70,65,85,71,48,30.04,29.95,10,3,0,0.00
2013-7-9,87,78,72,73,71,69,93,81,56,30.09,30.02,7,1,0,0.00
2013-7-10,84,78,74,75,74,72,95,87,74,30.04,29.83,12,3,0,0.00
2013-7-11,82,77,74,76,74,71,93,90,79,29.93,29.82,10,2,0,0.21
2013-7-12,79,73,68,71,68,66,92,83,69,30.15,29.92,12,4,0,0.02
2013-7-13,76,72,68,75,71,66,99,96,91,30.31,30.15,11,3,0,0.32
2013-7-14,90,80,74,77,74,72,98,85,59,30.34,30.24,7,1,0,0.01
2013-7-15,92,81,74,76,74,71,96,79,57,30.25,30.12,4,1,0,0.10
2013-7-16,93,82,74,75,71,69,88,71,50,30.18,30.11,4,0,0,0.00
2013-7-17,91,81,73,75,73,70,94,79,56,30.20,30.07,6,1,0,0.00
2013-7-18,96,85,76,77,74,70,87,71,47,30.07,29.97,5,2,0,0.00
2013-7-19,94,85,80,80,77,74,91,78,55,29.97,29.80,13,3,0,0.00
2013-7-20,90,79,78,77,65,-100,90,72,58,29.84,29.70,12,3,0,0.00
2013-7-21,85,78,71,72,67,62,93,71,49,29.99,29.84,9,1,0,0.00
2013-7-22,82,75,71,74,72,69,98,90,72,29.99,29.85,7,3,0,0.02
2013-7-23,87,78,72,78,74,71,99,90,68,29.85,29.58,13,2,0,0.42
2013-7-24,84,77,70,75,71,60,99,82,64,29.91,29.60,4,1,0,0.01
2013-7-25,72,64,61,61,59,55,96,83,67,30.06,29.91,13,3,0,0.38
2013-7-26,70,66,61,68,64,60,96,93,84,30.06,29.95,10,2,0,0.16
2013-7-27,81,74,69,70,68,63,95,82,62,30.09,29.99,10,2,0,0.06
2013-7-28,83,74,69,71,68,65,96,83,61,30.01,29.96,5,1,0,0.01
2013-7-29,85,77,71,73,70,66,98,82,65,30.06,29.97,8,1,0,0.00
2013-7-30,80,73,66,66,60,56,92,66,52,30.14,30.06,6,2,0,0.00
2013-7-31,82,72,64,65,62,55,95,73,40,30.16,30.07,7,1,0,0.00
2013-8-1,81,70,66,69,65,62,96,84,54,30.07,29.87,7,1,0,0.10
2013-8-2,84,75,67,69,67,62,97,78,47,29.92,29.80,9,2,0,0.04
2013-8-3,80,72,69,69,65,61,91,79,57,29.92,29.84,10,3,0,0.02
2013-8-4,82,73,65,68,60,56,92,67,45,29.92,29.82,12,1,0,0.01
2013-8-5,79,69,61,56,54,48,80,60,34,30.06,29.92,8,2,0,0.00
2013-8-6,84,71,60,62,58,55,96,67,37,30.16,30.06,7,2,0,0.00
2013-8-7,83,71,61,65,62,58,96,74,45,30.19,30.13,12,2,0,0.00
2013-8-8,83,75,71,72,69,65,94,83,67,30.13,30.06,13,4,0,0.07
2013-8-9,77,75,74,75,73,71,97,93,88,30.07,29.83,17,4,0,0.15
2013-8-10,83,76,69,74,66,58,98,74,49,30.05,29.83,7,2,0,0.01
2013-8-11,83,72,63,63,56,50,75,58,33,30.11,30.04,5,1,0,0.00
2013-8-12,76,72,68,71,68,62,96,87,75,30.06,29.95,2,0,0,0.18
2013-8-13,73,69,67,73,68,65,99,97,90,29.95,29.72,9,1,0,0.54
2013-8-14,77,69,63,69,57,53,98,68,46,30.02,29.72,10,2,0,0.00
2013-8-15,79,69,61,59,54,48,80,61,35,30.15,30.02,11,2,0,0.00
2013-8-16,85,72,62,64,58,50,94,65,31,30.21,30.13,8,1,0,0.00
2013-8-17,86,72,62,62,59,53,95,67,33,30.29,30.22,4,0,0,0.00
2013-8-18,77,69,63,67,62,58,97,80,61,30.29,30.13,6,1,0,0.01
2013-8-19,78,70,61,66,63,56,92,77,61,30.13,30.02,5,1,0,0.01
2013-8-20,87,76,66,68,65,59,96,72,40,30.14,30.04,7,1,0,0.00
2013-8-21,90,77,67,72,67,60,98,75,36,30.18,30.07,6,1,0,0.00
2013-8-22,81,74,71,74,70,68,96,89,76,30.08,29.88,10,2,0,0.19
2013-8-23,86,74,64,70,65,58,97,74,40,30.11,29.86,6,1,0,0.00
2013-8-24,82,70,60,62,56,52,92,64,37,30.36,30.11,5,2,0,0.00
2013-8-25,84,70,58,65,57,48,97,67,28,30.39,30.24,7,2,0,0.00
2013-8-26,80,72,69,70,64,57,96,74,62,30.24,29.94,11,3,0,0.62
2013-8-27,85,74,70,73,70,68,99,89,63,29.94,29.83,6,2,0,0.78
2013-8-28,87,75,68,74,70,67,98,87,63,29.92,29.86,5,1,0,0.00
2013-8-29,79,70,65,70,66,60,96,85,65,30.06,29.92,12,3,0,0.00
2013-8-30,81,70,62,71,65,59,95,85,69,30.05,29.89,6,1,0,0.00
2013-8-31,80,75,72,72,71,70,95,88,75,29.89,29.84,11,4,0,0.00
2013-9-1,80,76,73,74,73,71,97,91,81,29.90,29.84,14,3,0,0.10
2013-9-2,78,75,73,74,73,71,97,93,86,29.86,29.72,7,2,0,0.00
2013-9-3,74,71,66,73,70,63,99,96,86,29.87,29.71,7,1,0,0.70
2013-9-4,80,71,64,63,60,54,88,69,41,29.97,29.86,8,2,0,0.00
2013-9-5,79,56,62,65,23,-100,93,48,41,30.14,29.91,7,2,0,0.00
2013-9-6,72,63,57,52,47,42,77,57,37,30.25,30.13,10,2,0,0.00
2013-9-7,78,67,58,60,54,49,80,64,40,30.13,29.92,10,3,0,0.00
2013-9-8,82,71,61,65,57,44,82,63,39,30.08,29.80,9,3,0,0.00
2013-9-9,73,63,53,56,48,44,80,60,36,30.25,30.09,8,1,0,0.00
2013-9-10,77,70,63,70,65,56,95,84,73,30.19,30.08,11,4,0,0.07
2013-9-11,90,77,72,76,72,70,96,83,63,30.13,30.02,12,3,0,0.00
2013-9-12,80,74,70,73,71,68,97,90,77,30.01,29.71,15,4,0,0.38
2013-9-13,79,71,62,70,66,55,99,84,61,29.80,29.62,6,1,0,0.03
2013-9-14,70,62,56,55,52,50,84,71,54,30.09,29.80,7,2,0,0.00
2013-9-15,70,61,53,57,51,47,86,69,46,30.20,30.09,10,2,0,0.00
2013-9-16,73,64,56,61,55,42,91,74,54,30.23,30.05,7,2,0,0.00
2013-9-17,67,55,48,45,40,38,78,59,37,30.42,30.23,12,3,0,0.00
2013-9-18,72,59,47,52,48,40,97,71,32,30.34,30.20,5,1,0,0.00
2013-9-19,76,63,52,59,55,50,98,76,43,30.19,30.09,6,2,0,0.00
2013-9-20,81,66,55,66,58,54,99,80,43,30.11,30.04,7,1,0,0.00
2013-9-21,80,68,57,68,63,56,99,87,63,30.05,29.75,13,3,0,0.02
2013-9-22,74,67,57,68,58,44,97,75,49,29.87,29.66,13,3,0,0.64
2013-9-23,68,58,51,48,45,43,75,62,45,30.02,29.87,7,2,0,0.00
2013-9-24,69,58,50,51,45,41,77,63,46,30.03,29.84,10,2,0,0.00
2013-9-25,73,62,52,58,50,44,92,69,39,29.95,29.88,7,1,0,0.00
2013-9-26,70,62,52,58,53,50,92,73,52,30.11,29.95,9,2,0,0.00
2013-9-27,67,60,52,55,53,50,96,78,59,30.27,30.11,7,1,0,0.00
2013-9-28,77,63,54,57,54,53,96,76,45,30.32,30.25,5,1,0,0.00
2013-9-29,72,59,51,56,52,49,98,80,51,30.25,30.10,9,2,0,0.01
2013-9-30,74,63,57,57,55,46,95,78,40,30.09,29.98,6,1,0,0.00
2013-10-1,79,66,57,61,58,54,97,77,47,29.99,29.89,6,1,0,0.01
2013-10-2,79,68,60,64,61,57,98,80,54,30.00,29.90,6,1,0,0.00
2013-10-3,81,68,60,62,55,46,94,65,31,30.12,30.01,4,1,0,0.00
2013-10-4,84,68,59,67,62,54,96,82,58,30.08,30.00,7,2,0,0.01
2013-10-5,76,66,61,63,61,60,95,84,61,30.11,30.04,6,1,0,0.00
2013-10-6,65,63,61,64,62,60,98,95,88,30.16,30.09,9,2,0,0.04
2013-10-7,80,71,65,71,67,54,99,87,68,30.08,29.87,18,4,0,0.01
2013-10-8,71,63,58,55,46,42,78,57,36,30.33,29.95,8,2,0,0.00
2013-10-9,66,58,54,50,47,42,78,67,57,30.41,30.31,17,6,0,0.00
2013-10-10,65,60,54,59,54,48,86,80,75,30.31,30.10,12,6,0,0.00
2013-10-11,72,64,60,60,57,40,89,79,46,30.11,30.04,17,6,0,0.00
2013-10-12,72,62,58,57,51,39,84,68,45,30.32,30.09,19,7,0,0.00
2013-10-13,61,57,52,52,50,46,82,76,67,30.40,30.30,17,5,0,0.00
2013-10-14,66,55,48,51,48,45,95,78,55,30.38,30.27,6,1,0,0.00
2013-10-15,71,57,48,55,50,45,99,80,48,30.27,30.15,9,2,0,0.00
2013-10-16,67,60,54,58,55,51,95,83,72,30.15,29.93,10,2,0,0.00
2013-10-17,69,63,58,63,60,57,97,91,73,29.93,29.75,12,2,0,0.00
2013-10-18,69,64,58,63,52,44,95,68,50,29.96,29.66,11,4,0,0.01
2013-10-19,70,58,48,56,48,42,96,71,37,30.00,29.77,5,1,0,0.04
2013-10-20,64,58,54,59,44,37,96,61,37,30.05,29.72,12,3,0,0.03
2013-10-21,69,57,46,49,44,40,90,65,34,30.14,30.02,8,2,0,0.00
2013-10-22,70,58,53,55,50,44,93,75,45,30.01,29.76,10,2,0,0.00
2013-10-23,53,50,46,43,37,33,82,64,48,29.82,29.60,9,1,0,0.02
2013-10-24,55,50,45,39,34,28,73,55,39,29.94,29.70,11,4,0,0.01
2013-10-25,54,48,44,36,33,28,72,56,41,30.20,29.94,11,3,0,0.00
2013-10-26,57,50,42,40,35,29,76,58,36,30.19,29.91,16,5,0,0.00
2013-10-27,59,53,48,40,35,31,73,51,38,30.09,29.84,9,4,0,0.01
2013-10-28,61,52,42,40,35,32,78,53,38,30.32,30.09,11,3,0,0.00
2013-10-29,54,46,39,35,32,27,84,58,36,30.41,30.32,10,2,0,0.00
2013-10-30,61,50,40,51,44,34,93,79,54,30.36,30.20,5,1,0,0.00
2013-10-31,66,58,48,61,55,46,99,89,79,30.24,29.85,15,3,0,0.00
2013-11-1,66,63,60,63,59,55,94,88,79,29.85,29.57,20,7,0,0.07
2013-11-2,70,59,54,56,51,45,94,74,46,29.74,29.62,6,1,0,0.00
2013-11-3,56,48,37,47,34,20,78,61,45,30.40,29.75,11,3,0,0.00
2013-11-4,50,40,35,29,22,18,75,52,31,30.67,30.41,15,3,0,0.00
2013-11-5,58,45,36,38,34,28,86,68,45,30.68,30.52,6,1,0,0.00
2013-11-6,63,52,42,55,46,38,96,80,55,30.52,30.09,13,2,0,0.00
2013-11-7,62,56,44,61,53,34,98,90,67,30.09,29.72,14,4,0,0.41
2013-11-8,52,46,42,35,32,27,69,58,42,30.16,29.88,12,4,0,0.00
2013-11-9,48,45,40,37,30,26,67,58,49,30.27,30.04,11,3,0,0.00
2013-11-10,61,52,48,40,38,33,69,59,41,30.04,29.76,18,5,0,0.00
2013-11-11,53,49,44,41,33,29,66,55,44,30.16,29.96,12,4,0,0.00
2013-11-12,52,39,32,38,27,19,90,64,53,30.23,29.91,15,5,0,0.10
2013-11-13,41,35,28,24,18,14,66,53,36,30.32,30.22,12,4,0,0.00
2013-11-14,50,43,34,29,23,17,64,48,31,30.25,30.11,17,6,0,0.00
2013-11-15,58,46,42,42,35,25,89,65,41,30.20,30.13,9,3,0,0.00
2013-11-16,61,50,43,46,41,36,93,74,48,30.27,30.17,7,1,0,0.00
2013-11-17,63,56,44,60,54,42,99,94,79,30.25,29.79,11,3,0,0.00
2013-11-18,63,58,53,61,48,34,99,72,44,29.79,29.55,17,5,0,0.45
2013-11-19,52,44,35,32,27,21,60,51,41,30.25,29.66,16,5,0,0.00
2013-11-20,46,37,31,23,18,13,63,49,28,30.55,30.26,10,3,0,0.00
2013-11-21,53,42,31,40,30,20,81,65,48,30.56,30.34,6,1,0,0.00
2013-11-22,53,50,46,52,47,40,96,89,79,30.32,29.80,7,2,0,0.08
2013-11-23,53,45,34,50,30,15,90,58,36,29.91,29.78,16,5,0,0.00
2013-11-24,34,28,25,15,8,2,56,44,32,30.21,29.81,21,8,0,0.00
2013-11-25,35,29,23,21,15,10,62,55,47,30.37,30.21,16,4,0,0.00
2013-11-26,51,40,35,51,28,18,98,64,44,30.27,29.86,8,3,0,0.22
2013-11-27,62,51,39,62,50,30,99,94,67,29.83,29.16,24,8,0,1.28
2013-11-28,40,34,30,33,19,13,81,56,40,30.40,29.54,18,5,0,0.00
2013-11-29,41,34,29,22,17,13,58,51,45,30.66,30.40,9,2,0,0.00
2013-11-30,38,32,25,29,19,12,76,61,51,30.69,30.34,9,3,0,0.00
2013-12-1,51,45,38,47,41,30,96,87,73,30.33,29.94,8,1,0,0.08
2013-12-2,45,40,36,41,38,34,97,92,82,29.93,29.82,4,1,0,0.00
2013-12-3,50,41,35,41,38,34,97,88,66,29.93,29.80,5,1,0,0.00
2013-12-4,51,42,36,41,35,31,92,76,55,30.10,29.93,5,1,0,0.00
2013-12-5,59,53,43,56,52,41,98,94,89,30.09,29.89,12,3,0,0.00
2013-12-6,56,48,38,56,47,37,100,95,85,30.05,29.83,7,2,0,0.37
2013-12-7,43,37,32,37,29,19,94,73,54,30.42,30.01,12,4,0,0.27
2013-12-8,34,32,29,31,21,18,89,64,54,30.53,30.34,11,2,0,0.00
2013-12-9,47,39,31,47,39,29,99,98,89,30.33,29.83,17,7,0,0.21
2013-12-10,38,35,32,37,31,17,96,85,52,29.99,29.75,14,4,0,0.19
2013-12-11,36,32,30,21,18,16,63,57,52,30.22,30.00,14,6,0,0.00
2013-12-12,31,27,24,19,11,6,66,53,39,30.24,30.05,13,4,0,0.00
2013-12-13,36,31,24,20,16,8,67,54,48,30.27,30.00,17,6,0,0.00
2013-12-14,38,26,20,38,21,11,99,82,53,30.47,29.86,18,7,0,0.33
2013-12-15,44,36,32,44,34,24,100,90,65,29.85,29.34,21,6,0,1.19
2013-12-16,36,30,26,26,15,9,69,53,42,30.15,29.72,15,5,0,0.00
2013-12-17,36,27,22,35,22,11,96,83,54,30.17,29.82,20,5,0,0.35
2013-12-18,36,30,23,25,23,21,90,75,63,30.07,29.80,10,4,0,0.00
2013-12-19,47,38,30,33,27,21,77,64,47,30.09,29.94,11,4,0,0.00
2013-12-20,53,44,37,46,37,29,92,76,55,30.05,29.91,10,2,0,0.00
2013-12-21,55,51,46,54,48,45,97,89,75,29.96,29.86,17,4,0,0.00
2013-12-22,59,55,52,56,53,49,99,95,82,29.93,29.78,17,7,0,0.00
2013-12-23,57,50,40,54,49,36,99,96,85,30.04,29.83,9,2,0,0.47
2013-12-24,42,36,30,35,23,13,83,59,45,30.19,29.98,13,3,0,0.00
2013-12-25,29,25,20,18,10,6,76,54,38,30.46,30.20,12,2,0,0.00
2013-12-26,39,33,25,35,28,18,93,81,71,30.38,30.05,9,2,0,0.00
2013-12-27,39,35,31,27,24,20,81,65,48,30.25,30.16,11,4,0,0.00
2013-12-28,52,42,32,36,30,24,86,66,39,30.20,29.99,14,4,0,0.00
2013-12-29,54,44,40,54,40,32,99,86,68,30.00,29.26,14,4,0,1.23
2013-12-30,44,36,21,41,28,9,96,74,49,30.11,29.54,9,3,0,0.00
2013-12-31,32,25,18,23,12,7,69,59,47,30.16,29.99,16,3,0,0.00
2014-1-1,32,29,25,21,15,11,74,57,49,30.33,30.15,11,3,0,0.00
2014-1-2,30,27,15,28,24,12,93,88,62,30.22,29.60,21,12,0,0.01